AirNav   Everest Fuels
 
 851 users online  

W94 Camp Peary Landing Strip Airport
Williamsburg, Virginia, USA

GOING TO WILLIAMSBURG?


FAA INFORMATION EFFECTIVE 13 AUGUST 2020

Location

FAA Identifier: W94
Lat/Long: 37-18-46.0594N 076-38-17.5821W
37-18.767657N 076-38.293035W
37.3127943,-76.6382172
(estimated)
Elevation: 40.8 ft. / 12 m (estimated)
Variation: 11W (2010)
From city: 3 miles NE of WILLIAMSBURG, VA
Time zone: UTC -4 (UTC -5 during Standard Time)
Zip code: 23188

Airport Operations

Airport use: Private use, THIS FLD IS DOD RESTRICTED.
Activation date: 07/1958
Control tower: no
ARTCC: WASHINGTON CENTER
FSS: LEESBURG FLIGHT SERVICE STATION
NOTAMs facility: DCA (NOTAM-D service available)
Attendance: MON-FRI 0800-1630
Wind indicator: yes
Segmented circle: no
Lights: SS-SR

Airport Communications

NORFOLK APPROACH: 125.7
NORFOLK DEPARTURE: 125.7
WX AWOS-3 at JGG (6 nm SW): 120.625 (757-220-8810)
WX ASOS at PHF (13 nm SE): PHONE 757-874-3682
WX AWOS-3 at FYJ (14 nm NW): 132.825 (804-785-2307)
WX AWOS-3 at W75 (20 nm NE): 118.45 (804-758-8592)
  • APCH/DEP SVC PRVDD BY ORF APCH ON 125.7/335.625.

Nearby radio navigation aids

VOR radial/distance  VOR name  Freq  Var
HCMr164/8.9HARCUM VORTAC108.8007W
HPWr098/22.8HOPEWELL VORTAC112.0006W
CCVr276/30.6CAPE CHARLES VORTAC112.2010W
ORFr327/32.8NORFOLK VORTAC116.9007W
RICr118/34.4RICHMOND VORTAC114.1009W

 
NDB name  Hdg/Dist  Freq  Var  ID
WAKEFIELD052/26.327411WAKQ .- -.- --.-

Airport Services

Airframe service: NONE
Powerplant service: NONE

Runway Information

Runway 5/23

Dimensions: 5018 x 151 ft. / 1529 x 46 m
FLD CLSD TO ALL CIV & MIL ACFT WO PRIOR APVL OF BASE COMDR.
Surface: asphalt
Runway edge lights: low intensity
RUNWAY 5  RUNWAY 23
Latitude: 37-18.448248N37-19.087063N
Longitude: 076-38.621737W076-37.964333W
Elevation: 40.8 ft.31.3 ft.
Traffic pattern: leftleft
Visual slope indicator: 4-light PAPI on left4-light PAPI on left
Touchdown point: yes, no lightsyes, no lights

Airport Ownership and Management from official FAA records

Ownership: U.S. Army
Owner: US ARMY AERONAUTICAL SVCS AGENCY
FT BELVOIR, VA 22060
Manager: DAVID J CROMLEY
AFETA-CAMP PEARY
WILLIAMSBURG, VA 23185
Phone 804-229-2121
COLONEL INFANTRY.

Additional Remarks

CAUTION: FLD RSTD, PPR BY WRITTEN REQ TO BASE COMDR, ATTN: AIR OPS. EXC WHEN OPR UNDER PRIOR PERMS AUTH, PILOTS SHOULD MAINT AT LEAST 3000 FT ABV THE ARPT ELEV WITHIN 5 NM.
FOR CD CTC NORFOLK APCH AT 757-464-0757.

Instrument Procedures

NOTE: All procedures below are presented as PDF files. If you need a reader for these files, you should download the free Adobe Reader.

NOT FOR NAVIGATION. Please procure official charts for flight.
FAA instrument procedures published for use from 13 August 2020 at 0901Z to 10 September 2020 at 0900Z.

 
IAPs - Instrument Approach Procedures
RNAV (GPS) RWY 05   download (196KB)
RNAV (GPS) RWY 23   download (129KB)
VOR-A   download (122KB)
NOTE: Special Take-Off Minimums/Departure Procedures apply   download (140KB)

Other nearby airports with instrument procedures:

KJGG - Williamsburg-Jamestown Airport (6 nm SW)
KFAF - Felker Army Airfield (11 nm S)
KPHF - Newport News/Williamsburg International Airport (13 nm SE)
KFYJ - Middle Peninsula Regional Airport (14 nm NW)
KLFI - Langley Air Force Base (19 nm SE)
W75 - Hummel Field Airport (20 nm NE)
 
Loc | Ops | Rwys | IFR | FBO | Links
Com | Nav | Svcs | Stats | Notes
Area around W94 (Camp Peary Landing Strip Airport)
 
Road maps at: MapQuest Bing Google
 
Aerial photo
WARNING: Photo may not be current or correct
Aerial photo of W94 (Camp Peary Landing Strip Airport)
Photo by Glenn Woodell, of NASA Langley Research Center
Photo taken 10-Apr-2014
looking south.

Do you have a better or more recent aerial photo of Camp Peary Landing Strip Airport that you would like to share? If so, please send us your photo.

 
Sectional chart

 
Airport distance calculator
Flying to Camp Peary Landing Strip Airport? Find the distance to fly.

From to W94

Sunrise and sunset
Times for 14-Aug-2020
 Local
(UTC-4)
 Zulu
(UTC)
Morning civil twilight05:5609:56
Sunrise06:2410:24
Sunset19:5823:58
Evening civil twilight20:2600:26

Current date and time
Zulu (UTC)  15-Aug-2020 03:08:53
Local (UTC-4)  14-Aug-2020 23:08:53
 
METAR
KJGG 
6nm SW 
150255Z AUTO 00000KT 7SM SCT043 BKN049 24/24 A2997 RMK AO1 P0002
KFAF 
12nm S 
150256Z AUTO 00000KT 10SM -DZ BKN045 23/23 A2993 RMK AO2 RAE11RAB38E47DZB47 SLP138 P0002 60057 T02300225 50007 $
KPHF 
13nm SE 
150254Z AUTO 00000KT 10SM OVC055 24/22 A2995 RMK AO2 RAE45 SLP142 P0008 60043 T02440217 50008
KFYJ 
14nm NW 
150255Z AUTO 00000KT 10SM SCT034 BKN050 OVC070 23/22 A2997 RMK AO1 P0001 60023 T02260221
KW75 
20nm NE 
150255Z AUTO 00000KT 10SM BKN010 OVC017 23/23 A2995 RMK AO1 60008 T02330233
KLFI 
20nm SE 
150250Z AUTO 03009KT 8SM SCT014 SCT020 BKN031 BKN040 24/24 A2994 RMK AO2 RAE37DZB37E50 SLP145 $
TAF
KFAF 
12nm S 
141800Z 1418/1524 05009KT 8000 -SHRA BKN020 BKN080 QNH2988INS TEMPO 1420/1423 VRB10G15KT 4800 -TSRA BKN015CB OVC025 BECMG 1503/1504 02006KT 8000 -SHRA BR BKN010 OVC015 QNH2989INS BECMG 1505/1506 02009KT 6000 -SHRA BR BKN007 OVC010 QNH2990INS BECMG 1512/1513 05012KT 8000 -SHRA BKN015 QNH2991INS TX27/1419Z TN24/1503Z LAST NO AMDS AFT 1421 NEXT 1710
KPHF 
13nm SE 
150158Z 1502/1524 04007KT P6SM VCSH FEW011 BKN025 OVC070 FM150600 04003KT 6SM BR OVC015 FM151500 05006KT 5SM -RA BKN015
KLFI 
20nm SE 
141817Z 1418/1515 03009KT 4800 -SHRA BKN015 BKN025 QNH2986INS BECMG 1418/1419 VRB06KT 8000 -SHRA BKN020 QNH2984INS TEMPO 1420/1423 12012G18KT 4800 -TSRA BKN020CB BECMG 1501/1502 02009KT 9999 NSW BKN030 QNH2987INS TX28/1418Z TN24/1509Z LAST NO AMDS AFT 1418 NEXT 1512
NOTAMs
Click for the latest NOTAMs
NOTAMs are issued by the DoD/FAA and will open in a separate window not controlled by AirNav.

 

 
 

Would you like to see your business listed on this page?

 If your business provides an interesting product or service to pilots, flight crews, aircraft, or users of the Camp Peary Landing Strip Airport, you should consider listing it here.  To start the listing process, click on the button below
 
Add a business
 

Other Pages about Camp Peary Landing Strip Airport

Update a link
 
Copyright © AirNav, LLC. All rights reserved. Privacy Policy  Contact